[[{"header":{"parameterUnit":"m.s-1","parameterCategory":1,"la1":30.2991,"la2":30.254,"lo1":-89.0895,"lo2":-89.0444,"dy":0.0017,"dx":0.0017,"nx":28,"ny":28,"refTime":"2025-09-14T21:00:00:Z","depth":0,"parameterNumber":2,"parameterNumberName":"U-component_of_WINDS"},"data":[0,0,0,0,0,0,0,0,0,0,0,0,0,0,0,0,0,0,0,0,0,0,0,0,0,0,0,0,0,0,0,0,0,0,0,0,0,0,0,0,0,0,0,0,0,0,0,0,0,0,0,0,0,0,0,0,0,0,0.3088,0.3088,0,0.3076,0.3075,0.3075,0.3032,0.3031,0.303,0.3029,0.3018,0.3019,0.302,0,0,0,0,0,0,0,0,0,0,0,0,0,0.3076,0.3076,0.3088,0.3088,0.3088,0.3076,0.3075,0.3075,0.3032,0.3031,0.3029,0.3028,0.3018,0.3019,0.302,0,0,0,0,0,0,0,0,0,0,0,0,0,0.3074,0.3076,0.3088,0.3065,0.3062,0.3076,0.3075,0.3075,0.3032,0.3031,0.3029,0.3028,0.3018,0.3019,0.302,0.3055,0,0,0.3023,0.3023,0,0,0,0,0,0,0,0,0.3074,0.3075,0.3068,0.3066,0.3064,0.3054,0.3067,0.3069,0.3033,0.3044,0.3029,0.3027,0.3031,0.3031,0.3032,0.3055,0.3055,0.3023,0.3023,0.3024,0.3024,0,0,0,0,0,0,0,0.3074,0.3075,0.3083,0.3068,0.3065,0.3055,0.3053,0.3067,0.3046,0.3043,0.3039,0.3038,0.303,0.3031,0.3032,0.3054,0.3023,0.3024,0.3024,0.3025,0.3106,0.3107,0,0,0,0,0,0,0.3078,0.3075,0.3084,0.3083,0.3065,0.3057,0.3054,0.3058,0.3046,0.3042,0.304,0.3036,0.303,0.3031,0.3031,0.3072,0.3024,0.3025,0.3025,0.3104,0.3106,0.3108,0,0,0,0,0,0,0.3078,0.3079,0.3084,0.3078,0.3078,0.3058,0.3063,0.3059,0.306,0.3044,0.304,0.3045,0.3029,0.303,0.305,0.3071,0.3025,0.3026,0.3102,0.3105,0.3107,0.3155,0,0,0,0,0,0,0.3077,0.3079,0.3092,0.3079,0.3079,0.3102,0.3064,0.306,0.3062,0.3057,0.3048,0.3044,0.3028,0.3048,0.3051,0.3072,0.3027,0.31,0.3103,0.3106,0.3151,0.3158,0.3165,0,0,0,0,0,0.3077,0.3107,0.3093,0.3094,0.3094,0.3104,0.3104,0.3084,0.3064,0.3077,0.3066,0.3045,0.3068,0.3051,0.3053,0.3075,0.3099,0.3103,0.3106,0.3148,0.3157,0.3164,0,0,0,0,0,0,0.3124,0.3104,0.3089,0.3115,0.3111,0.3096,0.3113,0.3094,0.3096,0.3092,0.3068,0.3066,0.3089,0.3084,0.3065,0.3108,0.308,0.3084,0.3111,0.312,0.3126,0.3127,0.3028,0,0,0,0,0,0.3137,0.3146,0.3128,0.3153,0.3152,0.3133,0.3136,0.3121,0.3116,0.3115,0.3105,0.3102,0.3109,0.3114,0.3119,0.315,0.3147,0.3166,0.3173,0.3178,0.3182,0.3198,0.3206,0.3119,0.3119,0.3119,0,0,0.3165,0.3155,0.3162,0.3162,0.3157,0.3168,0.3132,0.3144,0.3151,0.3117,0.3135,0.3128,0.3123,0.3148,0.3159,0.3144,0.3206,0.3183,0.3187,0.3188,0.3203,0.3211,0.3218,0.3122,0.3121,0.3121,0,0,0.322,0.3214,0.3233,0.3229,0.3222,0.3209,0.3214,0.3202,0.3195,0.3213,0.3187,0.3196,0.3208,0.3205,0.3205,0.3259,0.324,0.3262,0.3297,0.3313,0.332,0.3326,0.3346,0.3353,0.3266,0.3266,0.3266,0,0.3256,0.327,0.3246,0.326,0.3261,0.3229,0.3249,0.3246,0.3242,0.3243,0.3226,0.324,0.3235,0.3259,0.3272,0.3274,0.3279,0.3263,0.3321,0.3326,0.3332,0.335,0.3358,0.3268,0.3268,0.3268,0.3268,0,0.3314,0.3324,0.334,0.3336,0.3338,0.3355,0.3335,0.3341,0.3325,0.3314,0.3332,0.3324,0.3327,0.3331,0.3317,0.3354,0.3345,0.3325,0.3296,0.3343,0.336,0.3367,0.3272,0.3271,0.3271,0.327,0,0,0.34,0.3381,0.3388,0.3385,0.3375,0.3382,0.3398,0.34,0.3405,0.3403,0.3416,0.3426,0.3407,0.3407,0.3392,0.3406,0.3449,0.3384,0.3383,0.3397,0.349,0.3506,0.3514,0.3436,0.3437,0.3438,0.3491,0,0.3453,0.3478,0.3457,0.3486,0.3495,0.3464,0.3477,0.3473,0.3463,0.3469,0.3458,0.3466,0.344,0.344,0.3452,0.3442,0.3468,0.3437,0.3448,0.3449,0.3451,0.3523,0.354,0.359,0.3497,0.3498,0.3499,0,0.3518,0.3518,0.3548,0.3535,0.3538,0.355,0.355,0.3557,0.3551,0.3542,0.3543,0.3523,0.3538,0.3509,0.3529,0.3509,0.3512,0.3507,0.3508,0.3509,0.3478,0.3527,0.3605,0.3613,0.3509,0.3508,0.3508,0,0.3579,0.3586,0.3604,0.3603,0.3589,0.3598,0.3593,0.3585,0.3587,0.3588,0.3589,0.3591,0.3593,0.3595,0.3577,0.3557,0.3599,0.3569,0.3593,0.3594,0.3604,0.3604,0.3686,0.3605,0.3605,0.3605,0.3605,0,0.3641,0.366,0.3631,0.3643,0.3664,0.3639,0.3661,0.3652,0.3646,0.3656,0.3629,0.3639,0.3614,0.3621,0.3607,0.3626,0.3627,0.3621,0.3617,0.3624,0.3625,0.3626,0.3623,0.3607,0.3607,0.3606,0.3606,0,0.3712,0.3693,0.3712,0.3696,0.3692,0.3709,0.3695,0.3706,0.3693,0.3706,0.3707,0.3688,0.3695,0.3677,0.3682,0.3672,0.37,0.369,0.3702,0.3699,0.3725,0.3723,0.3811,0.3821,0.3734,0.3735,0.3735,0,0.3753,0.3768,0.3753,0.3757,0.3753,0.376,0.3762,0.3739,0.3742,0.3736,0.3747,0.3752,0.3754,0.3767,0.3754,0.3758,0.3748,0.3779,0.3749,0.3755,0.3749,0.3749,0.3751,0.3785,0.3786,0.3787,0.3788,0,0.3829,0.3819,0.3822,0.3822,0.3825,0.3825,0.3822,0.3827,0.3802,0.3808,0.3814,0.3816,0.382,0.3826,0.3826,0.3821,0.3801,0.3797,0.3803,0.3811,0.3817,0.3814,0.3719,0.3796,0.3795,0.3794,0.3794,0.3794,0.3887,0.3898,0.3889,0.3894,0.3889,0.3887,0.3896,0.3884,0.3889,0.389,0.3876,0.3886,0.3879,0.3877,0.3874,0.3882,0.3868,0.3877,0.3879,0.3882,0.3886,0.3815,0.3882,0.3881,0.3881,0.3881,0.3881,0,0.3961,0.3954,0.3958,0.3955,0.3959,0.3938,0.3935,0.3939,0.3948,0.3943,0.3946,0.3953,0.3958,0.3945,0.3948,0.3956,0.3947,0.3958,0.3958,0.3957,0.3898,0.3893,0.3965,0.3965,0.3965,0.3965,0.3965,0.3965,0.4001,0.4018,0.4007,0.4022,0.4014,0.4023,0.4023,0.4021,0.4017,0.4026,0.403,0.4021,0.4012,0.4014,0.4018,0.4014,0.4017,0.4031,0.4024,0.3969,0.3961,0.3953,0.3948,0.4031,0.4032,0.4082,0.4083,0.4083]},{"header":{"parameterUnit":"m.s-1","parameterCategory":1,"la1":30.2991,"la2":30.254,"lo1":-89.0895,"lo2":-89.0444,"dy":0.0017,"dx":0.0017,"nx":28,"ny":28,"refTime":"2025-09-14T21:00:00:Z","depth":0,"parameterNumber":3,"parameterNumberName":"V-component_of_WINDS"},"data":[0,0,0,0,0,0,0,0,0,0,0,0,0,0,0,0,0,0,0,0,0,0,0,0,0,0,0,0,0,0,0,0,0,0,0,0,0,0,0,0,0,0,0,0,0,0,0,0,0,0,0,0,0,0,0,0,0,0,0.4808,0.4809,0,0.4902,0.4903,0.4904,0.4963,0.4964,0.4964,0.4964,0.5058,0.5061,0.5063,0,0,0,0,0,0,0,0,0,0,0,0,0,0.4679,0.4681,0.4808,0.481,0.4811,0.4902,0.4903,0.4904,0.4963,0.4964,0.4964,0.4964,0.5058,0.506,0.5063,0,0,0,0,0,0,0,0,0,0,0,0,0,0.475,0.4682,0.4808,0.4851,0.4856,0.4901,0.4903,0.4905,0.4963,0.4964,0.4964,0.4965,0.5057,0.506,0.5063,0.5073,0,0,0.5073,0.5075,0,0,0,0,0,0,0,0,0.4746,0.4755,0.4844,0.4848,0.4854,0.4921,0.4892,0.4961,0.4963,0.4922,0.4964,0.4965,0.5012,0.5019,0.5036,0.5077,0.5082,0.5074,0.5076,0.5077,0.5078,0,0,0,0,0,0,0,0.4741,0.4751,0.4845,0.4845,0.4851,0.4865,0.4876,0.4905,0.4963,0.4926,0.493,0.4941,0.5015,0.5032,0.5038,0.5083,0.5073,0.5076,0.5078,0.508,0.5136,0.5136,0,0,0,0,0,0,0.4729,0.4746,0.4842,0.4848,0.48,0.4867,0.4879,0.4899,0.4963,0.4973,0.494,0.4943,0.5026,0.5034,0.5042,0.5057,0.5077,0.508,0.5082,0.5137,0.5136,0.5136,0,0,0,0,0,0,0.4726,0.4737,0.4839,0.4799,0.4813,0.4869,0.4891,0.4901,0.4918,0.4974,0.4984,0.4947,0.5027,0.5037,0.5065,0.5061,0.5082,0.5084,0.5137,0.5137,0.5136,0.5087,0,0,0,0,0,0,0.4722,0.4736,0.4741,0.4798,0.4814,0.486,0.4891,0.4902,0.4924,0.4928,0.4983,0.4993,0.5028,0.506,0.5068,0.5066,0.5087,0.5138,0.5137,0.5136,0.509,0.5085,0.5081,0,0,0,0,0,0.4718,0.4723,0.4741,0.4752,0.4822,0.486,0.4869,0.4911,0.4923,0.4928,0.4964,0.4991,0.506,0.5062,0.5072,0.5071,0.5138,0.5137,0.5136,0.5092,0.5086,0.5082,0,0,0,0,0,0,0.4664,0.4732,0.4752,0.4776,0.4812,0.487,0.4878,0.4904,0.4936,0.4939,0.4988,0.5,0.5023,0.505,0.505,0.5083,0.5102,0.5103,0.5065,0.506,0.5056,0.5049,0.509,0,0,0,0,0,0.4655,0.4681,0.4738,0.4754,0.4771,0.4821,0.4839,0.4868,0.4907,0.4922,0.496,0.4996,0.5026,0.5045,0.5075,0.5094,0.5106,0.5098,0.5094,0.509,0.509,0.5101,0.5098,0.5132,0.5132,0.5132,0,0,0.4636,0.4676,0.469,0.4745,0.4776,0.4801,0.4834,0.4859,0.4878,0.4926,0.4954,0.4983,0.5027,0.5049,0.5061,0.5072,0.5083,0.5089,0.5085,0.5088,0.51,0.5096,0.5094,0.5132,0.5132,0.5132,0,0,0.4615,0.4649,0.4666,0.4696,0.4743,0.4776,0.4779,0.4833,0.4854,0.4884,0.492,0.4943,0.4993,0.5023,0.5044,0.5033,0.5059,0.5042,0.502,0.503,0.5028,0.5026,0.5021,0.5019,0.5042,0.5042,0.5042,0,0.4586,0.4627,0.4671,0.4694,0.4717,0.4761,0.4778,0.4805,0.4859,0.4873,0.4885,0.4949,0.4981,0.5011,0.5009,0.5025,0.503,0.5036,0.5025,0.5023,0.5022,0.5018,0.5016,0.5039,0.504,0.504,0.504,0,0.4588,0.4615,0.4623,0.4674,0.4698,0.4717,0.4764,0.4782,0.4808,0.484,0.4868,0.4909,0.4948,0.4957,0.4983,0.4991,0.4996,0.5015,0.5036,0.5015,0.5012,0.5011,0.5036,0.5037,0.5037,0.5038,0,0,0.4537,0.4612,0.4614,0.4637,0.4691,0.4713,0.4734,0.4773,0.4787,0.4823,0.4841,0.4882,0.4901,0.4925,0.4954,0.4963,0.4951,0.4982,0.4983,0.4974,0.4961,0.4946,0.4944,0.4969,0.4969,0.4969,0.4957,0,0.4524,0.4565,0.4605,0.4632,0.4657,0.4699,0.4718,0.4752,0.4782,0.4807,0.484,0.4868,0.489,0.4905,0.4916,0.495,0.4949,0.4952,0.4986,0.4987,0.4974,0.4943,0.4927,0.4914,0.4957,0.4957,0.4956,0,0.4514,0.4548,0.4577,0.4628,0.464,0.4656,0.4695,0.4718,0.4758,0.4779,0.4805,0.4837,0.486,0.4878,0.4911,0.4911,0.4928,0.4947,0.4947,0.4952,0.497,0.4946,0.4911,0.4909,0.4955,0.4955,0.4956,0,0.4473,0.4526,0.455,0.4569,0.4629,0.4639,0.4665,0.4705,0.4726,0.4759,0.4772,0.4807,0.4826,0.4853,0.4892,0.4901,0.492,0.4941,0.4938,0.4937,0.494,0.4939,0.4907,0.4951,0.4951,0.4951,0.4951,0,0.4454,0.447,0.4532,0.4547,0.4566,0.4611,0.4628,0.4657,0.4693,0.4713,0.4752,0.477,0.4821,0.4846,0.4876,0.4898,0.4907,0.4924,0.4932,0.492,0.4918,0.4932,0.4933,0.495,0.495,0.495,0.495,0,0.4411,0.4453,0.4482,0.4537,0.4551,0.4563,0.4609,0.4625,0.4656,0.4682,0.469,0.474,0.477,0.4812,0.4855,0.4876,0.4894,0.4906,0.488,0.4885,0.4879,0.4879,0.4854,0.4853,0.4897,0.4896,0.4896,0,0.4397,0.441,0.4466,0.4483,0.4507,0.4534,0.4555,0.4599,0.462,0.4666,0.4675,0.4709,0.4738,0.4784,0.4823,0.4856,0.487,0.4859,0.4875,0.4863,0.487,0.4868,0.4869,0.4855,0.4855,0.4854,0.4854,0,0.4366,0.4386,0.4415,0.4451,0.4475,0.4505,0.4537,0.4549,0.46,0.462,0.4652,0.4675,0.4719,0.4751,0.4789,0.4815,0.4842,0.4848,0.4849,0.4837,0.4821,0.483,0.4869,0.4849,0.4849,0.4849,0.485,0.485,0.4336,0.435,0.4391,0.4422,0.4451,0.448,0.4497,0.4531,0.4558,0.4598,0.4622,0.4652,0.4691,0.4745,0.477,0.4794,0.4805,0.4806,0.4806,0.4806,0.4802,0.4818,0.4801,0.4801,0.4801,0.4801,0.4801,0,0.4307,0.4336,0.4363,0.4407,0.4431,0.4455,0.4492,0.451,0.4537,0.4571,0.4598,0.4634,0.4666,0.4707,0.4741,0.4752,0.4766,0.476,0.4759,0.4765,0.479,0.4786,0.4748,0.4748,0.4748,0.4748,0.4748,0.4748,0.4295,0.4319,0.4343,0.4381,0.441,0.444,0.4459,0.4486,0.4513,0.4552,0.4578,0.4605,0.4642,0.4679,0.4708,0.472,0.473,0.472,0.4735,0.4758,0.4763,0.4768,0.4764,0.4722,0.4722,0.4708,0.4708,0.4708]}]]